Time,TemperatureF,DewpointF,PressureIn,WindDirection,WindDirectionDegrees,WindSpeedMPH,WindSpeedGustMPH,Humidity,HourlyPrecipIn,Conditions,Clouds,dailyrainin,SoftwareType,DateUTC
2013-10-30 00:01:00,39.7,33.8,30.08,ESE,108,3.6,3.6,79,0.00,,-RA,0.00,VWS V14.01,2013-10-30 05:01:00,
2013-10-30 00:06:00,39.7,33.8,30.08,ESE,122,3.6,4.0,79,0.00,,-RA,0.00,VWS V14.01,2013-10-30 05:06:00,
2013-10-30 00:11:00,39.7,33.8,30.08,East,99,3.6,3.6,79,0.00,,-RA,0.00,VWS V14.01,2013-10-30 05:11:00,
2013-10-30 00:16:00,39.7,33.8,30.08,ESE,106,3.6,4.9,79,0.00,,-RA,0.00,VWS V14.01,2013-10-30 05:16:00,
2013-10-30 00:21:00,39.7,33.8,30.08,ESE,108,4.0,4.5,79,0.00,,-RA,0.00,VWS V14.01,2013-10-30 05:21:00,
2013-10-30 00:26:00,39.7,34.1,30.08,ESE,108,4.5,4.9,80,0.00,,-RA,0.00,VWS V14.01,2013-10-30 05:26:00,
2013-10-30 00:31:00,39.7,34.1,30.08,ESE,107,3.6,3.6,80,0.00,,-RA,0.00,VWS V14.01,2013-10-30 05:31:00,
2013-10-30 00:36:00,39.7,34.1,30.08,ESE,110,4.0,4.0,80,0.00,,-RA,0.00,VWS V14.01,2013-10-30 05:36:00,
2013-10-30 00:41:00,39.7,34.1,30.08,ESE,102,4.0,4.0,80,0.00,,-RA,0.00,VWS V14.01,2013-10-30 05:41:00,
2013-10-30 00:46:00,39.7,34.1,30.08,East,99,4.0,4.0,80,0.00,,-RA,0.00,VWS V14.01,2013-10-30 05:46:00,
2013-10-30 00:51:00,39.7,34.1,30.08,ESE,117,4.0,4.0,80,0.00,,-RA,0.00,VWS V14.01,2013-10-30 05:51:00,
2013-10-30 00:56:00,39.7,34.4,30.08,ESE,102,5.4,5.4,81,0.00,,-RA,0.00,VWS V14.01,2013-10-30 05:56:00,
2013-10-30 01:01:00,39.9,34.6,30.08,ESE,105,3.1,3.1,81,0.00,,OVC044,0.00,VWS V14.01,2013-10-30 06:01:00,
2013-10-30 01:06:00,39.9,34.6,30.08,ESE,109,4.0,4.0,81,0.00,,OVC044,0.00,VWS V14.01,2013-10-30 06:06:00,
2013-10-30 01:11:00,39.9,34.6,30.08,ESE,114,2.7,4.0,81,0.00,,OVC044,0.00,VWS V14.01,2013-10-30 06:11:00,
2013-10-30 01:16:00,39.9,34.6,30.08,East,99,2.2,2.7,81,0.00,,OVC044,0.00,VWS V14.01,2013-10-30 06:16:00,
2013-10-30 01:21:00,39.7,34.7,30.08,East,95,3.6,3.6,82,0.00,,OVC044,0.00,VWS V14.01,2013-10-30 06:21:00,
2013-10-30 01:26:00,39.7,34.7,30.08,ESE,113,4.0,4.9,82,0.00,,OVC044,0.00,VWS V14.01,2013-10-30 06:26:00,
2013-10-30 01:31:00,39.7,34.7,30.08,East,97,3.6,3.6,82,0.00,,-RA,0.00,VWS V14.01,2013-10-30 06:31:00,
2013-10-30 01:36:00,39.7,35.0,30.08,ESE,113,4.0,4.0,83,0.00,,-RA,0.00,VWS V14.01,2013-10-30 06:36:00,
2013-10-30 01:41:00,39.7,35.0,30.08,East,91,3.6,5.8,83,0.00,,-RA,0.00,VWS V14.01,2013-10-30 06:41:00,
2013-10-30 01:46:00,39.6,34.8,30.08,East,92,6.3,7.6,83,0.00,,-RA,0.00,VWS V14.01,2013-10-30 06:46:00,
2013-10-30 01:51:00,39.6,35.1,30.08,ESE,118,4.9,5.4,84,0.00,,-RA,0.00,VWS V14.01,2013-10-30 06:51:00,
2013-10-30 01:56:00,39.6,35.1,30.08,ESE,103,4.0,4.0,84,0.00,,-RA,0.00,VWS V14.01,2013-10-30 06:56:00,
2013-10-30 02:01:00,39.4,35.2,30.08,East,84,5.4,5.4,85,0.00,,,0.00,VWS V14.01,2013-10-30 07:01:00,
2013-10-30 02:06:00,39.4,35.2,30.08,ESE,103,4.0,4.9,85,0.00,,,0.00,VWS V14.01,2013-10-30 07:06:00,
2013-10-30 02:11:00,39.6,35.4,30.08,ESE,111,5.8,5.8,85,0.00,,,0.00,VWS V14.01,2013-10-30 07:11:00,
2013-10-30 02:16:00,39.6,35.7,30.08,ESE,109,4.9,4.9,86,0.00,,,0.00,VWS V14.01,2013-10-30 07:16:00,
2013-10-30 02:21:00,39.6,35.7,30.08,East,98,5.4,5.4,86,0.00,,,0.00,VWS V14.01,2013-10-30 07:21:00,
2013-10-30 02:26:00,39.6,35.7,30.08,ESE,107,3.6,4.0,86,0.00,,,0.00,VWS V14.01,2013-10-30 07:26:00,
2013-10-30 02:31:00,39.6,35.7,30.08,ESE,112,4.5,4.9,86,0.00,,-RA,0.00,VWS V14.01,2013-10-30 07:31:00,
2013-10-30 02:36:00,39.7,35.9,30.08,East,96,3.6,4.0,86,0.00,,-RA,0.00,VWS V14.01,2013-10-30 07:36:00,
2013-10-30 02:42:00,39.7,35.9,30.08,East,96,3.1,3.1,86,0.00,,-RA,0.00,VWS V14.01,2013-10-30 07:42:00,
2013-10-30 02:47:00,39.7,35.9,30.08,ESE,106,3.6,4.0,86,0.00,,-RA,0.00,VWS V14.01,2013-10-30 07:47:00,
2013-10-30 02:52:00,39.7,35.9,30.08,ESE,102,4.5,5.8,86,0.00,,-RA,0.00,VWS V14.01,2013-10-30 07:52:00,
2013-10-30 02:57:00,39.7,35.9,30.08,ESE,115,4.0,4.9,86,0.00,,-RA,0.00,VWS V14.01,2013-10-30 07:57:00,
2013-10-30 03:02:00,39.7,36.2,30.08,ESE,104,3.1,5.4,87,0.00,,-RA,0.00,VWS V14.01,2013-10-30 08:02:00,
2013-10-30 03:07:00,39.7,36.2,30.08,ESE,105,3.1,3.6,87,0.00,,-RA,0.00,VWS V14.01,2013-10-30 08:07:00,
2013-10-30 03:12:00,39.7,36.2,30.08,ESE,104,3.6,4.0,87,0.00,,-RA,0.00,VWS V14.01,2013-10-30 08:12:00,
2013-10-30 03:17:00,39.7,36.2,30.08,ESE,111,4.0,4.9,87,0.00,,-RA,0.00,VWS V14.01,2013-10-30 08:17:00,
2013-10-30 03:22:00,39.7,36.2,30.05,ESE,103,4.0,5.4,87,0.00,,-RA,0.00,VWS V14.01,2013-10-30 08:22:00,
2013-10-30 03:27:00,39.7,36.2,30.05,ESE,113,3.6,5.4,87,0.00,,-RA,0.00,VWS V14.01,2013-10-30 08:27:00,
2013-10-30 03:32:00,39.9,36.4,30.05,East,97,3.6,4.0,87,0.00,,,0.00,VWS V14.01,2013-10-30 08:32:00,
2013-10-30 03:37:00,39.9,36.4,30.05,ESE,102,3.6,3.6,87,0.04,,,0.04,VWS V14.01,2013-10-30 08:37:00,
2013-10-30 03:42:00,39.9,36.4,30.05,SE,134,3.1,3.6,87,0.04,,,0.04,VWS V14.01,2013-10-30 08:42:00,
2013-10-30 03:47:00,39.9,36.4,30.05,SE,134,3.1,3.1,87,0.04,,,0.04,VWS V14.01,2013-10-30 08:47:00,
2013-10-30 03:52:00,39.9,36.4,30.05,ESE,115,3.1,3.1,87,0.04,,,0.04,VWS V14.01,2013-10-30 08:52:00,
2013-10-30 03:57:00,39.9,36.4,30.05,SE,145,3.6,4.0,87,0.04,,,0.04,VWS V14.01,2013-10-30 08:57:00,
2013-10-30 04:02:00,40.1,36.8,30.05,SE,127,0.0,0.0,88,0.04,,,0.04,VWS V14.01,2013-10-30 09:02:00,
2013-10-30 04:07:00,40.1,36.8,30.05,SSE,166,3.1,3.1,88,0.00,,,0.04,VWS V14.01,2013-10-30 09:07:00,
2013-10-30 04:12:00,40.1,36.8,30.05,ESE,112,2.7,2.7,88,0.04,,,0.04,VWS V14.01,2013-10-30 09:12:00,
2013-10-30 04:17:00,40.1,36.8,30.05,SE,133,2.7,3.6,88,0.04,,,0.04,VWS V14.01,2013-10-30 09:17:00,
2013-10-30 04:22:00,40.3,37.0,30.05,ESE,111,2.7,2.7,88,0.04,,,0.04,VWS V14.01,2013-10-30 09:22:00,
2013-10-30 04:27:00,40.3,37.0,30.05,ESE,119,4.9,4.9,88,0.04,,,0.04,VWS V14.01,2013-10-30 09:27:00,
2013-10-30 04:32:00,40.3,37.0,30.05,ESE,116,3.6,3.6,88,0.04,,,0.04,VWS V14.01,2013-10-30 09:32:00,
2013-10-30 04:37:00,40.3,37.0,30.05,ESE,121,2.7,2.7,88,0.00,,,0.04,VWS V14.01,2013-10-30 09:37:00,
2013-10-30 04:42:00,40.5,37.2,30.05,SE,130,3.6,3.6,88,0.00,,,0.04,VWS V14.01,2013-10-30 09:42:00,
2013-10-30 04:47:00,40.5,37.2,30.05,SSW,192,2.2,2.2,88,0.00,,,0.04,VWS V14.01,2013-10-30 09:47:00,
2013-10-30 04:52:00,40.5,37.2,30.05,South,175,3.1,3.6,88,0.00,,,0.04,VWS V14.01,2013-10-30 09:52:00,
2013-10-30 04:57:00,40.5,37.5,30.05,SSW,198,2.7,3.6,89,0.00,,,0.04,VWS V14.01,2013-10-30 09:57:00,
2013-10-30 05:02:00,40.5,37.5,30.05,SSW,208,0.0,4.0,89,0.00,,,0.04,VWS V14.01,2013-10-30 10:02:00,
2013-10-30 05:07:00,40.6,37.7,30.05,SSW,192,0.0,0.0,89,0.00,,,0.04,VWS V14.01,2013-10-30 10:07:00,
2013-10-30 05:12:00,40.6,37.7,30.05,SE,127,0.0,2.7,89,0.00,,,0.04,VWS V14.01,2013-10-30 10:12:00,
2013-10-30 05:18:00,40.6,37.7,30.05,SSE,161,4.0,4.9,89,0.00,,,0.04,VWS V14.01,2013-10-30 10:18:00,
2013-10-30 05:23:00,40.6,37.7,30.05,SSW,195,0.0,3.6,89,0.00,,,0.04,VWS V14.01,2013-10-30 10:23:00,
2013-10-30 05:28:00,40.8,37.8,30.05,South,169,0.0,0.0,89,0.00,,,0.04,VWS V14.01,2013-10-30 10:28:00,
2013-10-30 05:33:00,40.8,38.1,30.05,SSE,153,0.0,0.0,90,0.00,,,0.04,VWS V14.01,2013-10-30 10:33:00,
2013-10-30 05:38:00,40.8,38.1,30.05,SE,131,3.6,4.0,90,0.00,,,0.04,VWS V14.01,2013-10-30 10:38:00,
2013-10-30 05:43:00,41.0,38.3,30.05,SE,133,4.0,4.0,90,0.00,,,0.04,VWS V14.01,2013-10-30 10:43:00,
2013-10-30 05:48:00,41.0,38.3,30.05,SE,130,3.6,3.6,90,0.00,,,0.04,VWS V14.01,2013-10-30 10:48:00,
2013-10-30 05:53:00,41.2,38.5,30.02,ESE,116,3.6,3.6,90,0.00,,,0.04,VWS V14.01,2013-10-30 10:53:00,
2013-10-30 05:58:00,41.2,38.5,30.02,SE,129,3.6,3.6,90,0.00,,,0.04,VWS V14.01,2013-10-30 10:58:00,
2013-10-30 06:03:00,41.2,38.5,30.02,ESE,115,2.7,3.1,90,0.00,,,0.04,VWS V14.01,2013-10-30 11:03:00,
2013-10-30 06:08:00,41.2,38.5,30.02,SSE,152,0.0,0.0,90,0.00,,,0.04,VWS V14.01,2013-10-30 11:08:00,
2013-10-30 06:13:00,41.4,38.9,30.02,SSE,162,5.4,5.4,91,0.00,,,0.04,VWS V14.01,2013-10-30 11:13:00,
2013-10-30 06:18:00,41.5,39.1,30.02,SSE,165,5.4,5.4,91,0.00,,,0.04,VWS V14.01,2013-10-30 11:18:00,
2013-10-30 06:23:00,41.5,39.1,30.02,SSE,153,4.0,4.0,91,0.00,,,0.04,VWS V14.01,2013-10-30 11:23:00,
2013-10-30 06:28:00,41.5,39.1,30.02,SE,140,5.4,5.8,91,0.00,,,0.04,VWS V14.01,2013-10-30 11:28:00,
2013-10-30 06:33:00,41.5,39.1,30.02,SSE,167,0.0,2.7,91,0.00,,,0.04,VWS V14.01,2013-10-30 11:33:00,
2013-10-30 06:38:00,41.5,39.1,30.02,South,174,3.1,3.1,91,0.00,,,0.04,VWS V14.01,2013-10-30 11:38:00,
2013-10-30 06:43:00,41.5,39.1,30.02,South,176,2.7,2.7,91,0.00,,,0.04,VWS V14.01,2013-10-30 11:43:00,
2013-10-30 06:48:00,41.7,39.3,30.02,South,171,2.2,4.0,91,0.00,,,0.04,VWS V14.01,2013-10-30 11:48:00,
2013-10-30 06:53:00,41.7,39.6,30.02,SSE,160,4.5,4.5,92,0.00,,,0.04,VWS V14.01,2013-10-30 11:53:00,
2013-10-30 06:58:00,41.7,39.6,30.02,SE,132,2.7,4.0,92,0.00,,,0.04,VWS V14.01,2013-10-30 11:58:00,
2013-10-30 07:03:00,41.7,39.6,30.02,SE,143,0.0,0.0,92,0.00,,,0.04,VWS V14.01,2013-10-30 12:03:00,
2013-10-30 07:08:00,41.9,39.8,30.02,SSE,147,2.7,3.6,92,0.00,,,0.04,VWS V14.01,2013-10-30 12:08:00,
2013-10-30 07:13:00,41.9,39.8,30.02,SSE,149,3.6,4.5,92,0.00,,,0.04,VWS V14.01,2013-10-30 12:13:00,
2013-10-30 07:18:00,41.9,39.8,29.99,SE,125,0.0,3.1,92,0.00,,,0.04,VWS V14.01,2013-10-30 12:18:00,
2013-10-30 07:23:00,41.9,39.5,29.99,SE,138,2.2,3.6,91,0.00,,,0.04,VWS V14.01,2013-10-30 12:23:00,
2013-10-30 07:28:00,41.9,39.5,29.99,ESE,120,2.7,3.6,91,0.00,,,0.04,VWS V14.01,2013-10-30 12:28:00,
2013-10-30 07:33:00,41.9,39.5,29.99,ESE,116,2.7,4.5,91,0.00,,,0.04,VWS V14.01,2013-10-30 12:33:00,
2013-10-30 07:38:00,41.9,39.5,29.99,ESE,105,3.6,5.4,91,0.00,,,0.04,VWS V14.01,2013-10-30 12:38:00,
2013-10-30 07:43:00,41.9,39.8,29.99,SSE,147,5.4,6.3,92,0.00,,,0.04,VWS V14.01,2013-10-30 12:43:00,
2013-10-30 07:48:00,41.9,39.8,29.99,ESE,110,4.0,5.8,92,0.00,,,0.04,VWS V14.01,2013-10-30 12:48:00,
2013-10-30 07:53:00,41.9,39.8,29.99,ESE,110,3.1,4.0,92,0.00,,,0.04,VWS V14.01,2013-10-30 12:53:00,
2013-10-30 07:58:00,42.1,39.9,29.99,ESE,116,3.1,4.0,92,0.00,,,0.04,VWS V14.01,2013-10-30 12:58:00,
2013-10-30 08:03:00,42.1,39.9,29.99,SE,139,4.0,4.9,92,0.00,,,0.04,VWS V14.01,2013-10-30 13:03:00,
2013-10-30 08:08:00,42.1,39.9,29.99,SE,125,3.6,5.8,92,0.00,,,0.04,VWS V14.01,2013-10-30 13:08:00,
2013-10-30 08:13:00,42.1,39.9,29.99,ESE,109,3.1,3.6,92,0.00,,,0.04,VWS V14.01,2013-10-30 13:13:00,
2013-10-30 08:18:00,42.1,39.9,29.99,SE,129,3.1,4.0,92,0.00,,,0.04,VWS V14.01,2013-10-30 13:18:00,
2013-10-30 08:23:00,42.3,40.1,29.99,SE,132,4.9,6.3,92,0.00,,,0.04,VWS V14.01,2013-10-30 13:23:00,
2013-10-30 08:28:00,42.3,40.1,29.99,SE,132,5.4,5.4,92,0.00,,,0.04,VWS V14.01,2013-10-30 13:28:00,
2013-10-30 08:33:00,42.3,40.1,29.99,ESE,106,3.1,3.6,92,0.00,,,0.04,VWS V14.01,2013-10-30 13:33:00,
2013-10-30 08:38:00,42.3,40.1,29.99,ESE,110,4.9,4.9,92,0.00,,,0.04,VWS V14.01,2013-10-30 13:38:00,
2013-10-30 08:43:00,42.3,40.4,29.99,East,97,3.1,4.0,93,0.00,,,0.04,VWS V14.01,2013-10-30 13:43:00,
2013-10-30 08:48:00,42.3,40.4,29.99,SE,142,2.7,4.0,93,0.00,,,0.04,VWS V14.01,2013-10-30 13:48:00,
2013-10-30 08:53:00,42.4,40.6,29.99,SSE,156,2.7,4.0,93,0.00,,,0.04,VWS V14.01,2013-10-30 13:53:00,
2013-10-30 08:58:00,42.4,40.6,29.99,ESE,122,4.0,4.5,93,0.00,,,0.04,VWS V14.01,2013-10-30 13:58:00,
2013-10-30 09:03:00,42.4,40.3,29.99,SE,124,4.0,4.9,92,0.00,,,0.04,VWS V14.01,2013-10-30 14:03:00,
2013-10-30 09:08:00,42.4,40.3,29.99,SE,130,3.6,4.0,92,0.00,,,0.04,VWS V14.01,2013-10-30 14:08:00,
2013-10-30 09:13:00,42.4,40.3,29.99,SSE,150,3.1,4.9,92,0.00,,,0.04,VWS V14.01,2013-10-30 14:13:00,
2013-10-30 09:18:00,42.4,40.3,29.99,SSW,212,0.0,3.6,92,0.00,,,0.04,VWS V14.01,2013-10-30 14:18:00,
2013-10-30 09:23:00,42.4,40.3,29.99,SSW,209,0.0,0.0,92,0.00,,,0.04,VWS V14.01,2013-10-30 14:23:00,
2013-10-30 09:28:00,42.6,40.5,29.99,SSW,203,3.6,3.6,92,0.00,,,0.04,VWS V14.01,2013-10-30 14:28:00,
2013-10-30 09:33:00,42.6,40.5,30.02,South,182,2.7,5.4,92,0.00,,,0.04,VWS V14.01,2013-10-30 14:33:00,
2013-10-30 09:38:00,42.6,40.5,30.02,ESE,118,3.1,6.3,92,0.00,,,0.04,VWS V14.01,2013-10-30 14:38:00,
2013-10-30 09:43:00,42.6,40.5,30.02,SSE,147,3.6,5.4,92,0.00,,,0.04,VWS V14.01,2013-10-30 14:43:00,
2013-10-30 09:48:00,42.6,40.5,30.02,South,171,4.0,4.9,92,0.00,,,0.04,VWS V14.01,2013-10-30 14:48:00,
2013-10-30 09:53:00,42.6,40.5,30.02,SSE,166,5.4,5.4,92,0.00,,,0.04,VWS V14.01,2013-10-30 14:53:00,
2013-10-30 09:58:00,42.6,40.5,30.02,SSE,160,3.6,3.6,92,0.00,,,0.04,VWS V14.01,2013-10-30 14:58:00,
2013-10-30 10:03:00,42.6,40.5,29.99,SSE,159,3.1,3.1,92,0.00,,,0.04,VWS V14.01,2013-10-30 15:03:00,
2013-10-30 10:08:00,42.6,40.5,29.99,SSE,163,5.8,5.8,92,0.00,,,0.04,VWS V14.01,2013-10-30 15:08:00,
2013-10-30 10:13:00,42.8,40.6,29.99,SE,136,3.1,3.6,92,0.00,,,0.04,VWS V14.01,2013-10-30 15:13:00,
2013-10-30 10:18:00,42.8,40.6,29.99,SSE,155,4.5,4.5,92,0.00,,,0.04,VWS V14.01,2013-10-30 15:18:00,
2013-10-30 10:24:00,42.8,40.6,29.99,South,172,4.9,6.3,92,0.00,,,0.04,VWS V14.01,2013-10-30 15:24:00,
2013-10-30 10:29:00,42.8,40.6,29.99,SE,135,4.0,4.0,92,0.00,,,0.04,VWS V14.01,2013-10-30 15:29:00,
2013-10-30 10:34:00,43.0,40.8,29.99,SSE,147,5.8,5.8,92,0.00,,,0.04,VWS V14.01,2013-10-30 15:34:00,
2013-10-30 10:39:00,43.0,40.8,29.99,SSE,149,3.1,3.1,92,0.00,,,0.04,VWS V14.01,2013-10-30 15:39:00,
2013-10-30 10:44:00,43.0,40.8,29.99,SE,127,2.7,3.6,92,0.00,,,0.04,VWS V14.01,2013-10-30 15:44:00,
2013-10-30 10:49:00,43.0,40.8,29.99,SE,134,3.6,4.5,92,0.00,,,0.04,VWS V14.01,2013-10-30 15:49:00,
2013-10-30 10:54:00,43.0,40.8,29.99,SE,145,5.4,5.4,92,0.00,,,0.04,VWS V14.01,2013-10-30 15:54:00,
2013-10-30 10:59:00,43.2,41.0,29.99,SE,144,2.7,4.0,92,0.00,,,0.04,VWS V14.01,2013-10-30 15:59:00,
2013-10-30 11:04:00,43.3,41.5,29.96,SE,130,0.0,3.6,93,0.00,,-RA,0.04,VWS V14.01,2013-10-30 16:04:00,
2013-10-30 11:09:00,43.3,41.5,29.96,SSE,153,4.0,4.5,93,0.00,,-RA,0.04,VWS V14.01,2013-10-30 16:09:00,
2013-10-30 11:14:00,43.5,41.6,29.96,SE,143,8.1,8.1,93,0.00,,-RA,0.04,VWS V14.01,2013-10-30 16:14:00,
2013-10-30 11:19:00,43.5,41.6,29.93,South,176,5.4,8.1,93,0.00,,-RA,0.04,VWS V14.01,2013-10-30 16:19:00,
2013-10-30 11:24:00,43.7,41.8,29.93,SSE,156,5.8,6.3,93,0.00,,-RA,0.04,VWS V14.01,2013-10-30 16:24:00,
2013-10-30 11:29:00,43.7,41.8,29.93,SE,139,4.9,5.8,93,0.00,,-RA,0.04,VWS V14.01,2013-10-30 16:29:00,
2013-10-30 11:34:00,43.9,42.0,29.93,SE,128,5.4,6.3,93,0.00,,,0.04,VWS V14.01,2013-10-30 16:34:00,
2013-10-30 11:39:00,44.1,42.2,29.93,SE,128,3.6,6.3,93,0.00,,,0.04,VWS V14.01,2013-10-30 16:39:00,
2013-10-30 11:44:00,44.1,42.2,29.93,SE,142,6.3,7.6,93,0.00,,,0.04,VWS V14.01,2013-10-30 16:44:00,
2013-10-30 11:49:00,44.2,42.3,29.93,ESE,106,7.6,8.7,93,0.00,,,0.04,VWS V14.01,2013-10-30 16:49:00,
2013-10-30 11:54:00,44.2,42.3,29.93,SSE,167,5.4,5.4,93,0.00,,,0.04,VWS V14.01,2013-10-30 16:54:00,
2013-10-30 11:59:00,44.2,42.6,29.93,SE,139,5.8,5.8,94,0.00,,,0.04,VWS V14.01,2013-10-30 16:59:00,
2013-10-30 12:04:00,44.4,42.8,29.93,South,183,7.6,7.6,94,0.00,,,0.04,VWS V14.01,2013-10-30 17:04:00,
2013-10-30 12:09:00,44.4,42.8,29.93,East,100,6.3,6.3,94,0.00,,,0.04,VWS V14.01,2013-10-30 17:09:00,
2013-10-30 12:14:00,44.4,42.8,29.93,SSE,161,5.8,6.3,94,0.00,,,0.04,VWS V14.01,2013-10-30 17:14:00,
2013-10-30 12:19:00,44.6,42.7,29.90,ESE,122,7.6,8.1,93,0.00,,,0.04,VWS V14.01,2013-10-30 17:19:00,
2013-10-30 12:24:00,44.8,42.9,29.90,ESE,120,10.1,10.1,93,0.00,,,0.04,VWS V14.01,2013-10-30 17:24:00,
2013-10-30 12:29:00,44.8,43.2,29.90,SE,140,8.1,8.3,94,0.00,,,0.04,VWS V14.01,2013-10-30 17:29:00,
2013-10-30 12:34:00,45.0,43.3,29.87,SE,141,7.6,7.6,94,0.00,,,0.04,VWS V14.01,2013-10-30 17:34:00,
2013-10-30 12:39:00,45.1,43.5,29.87,South,173,6.3,8.3,94,0.00,,,0.04,VWS V14.01,2013-10-30 17:39:00,
2013-10-30 12:44:00,45.3,43.7,29.87,South,171,5.8,5.8,94,0.00,,,0.04,VWS V14.01,2013-10-30 17:44:00,
2013-10-30 12:49:00,45.3,43.7,29.87,SE,137,0.0,0.0,94,0.00,,,0.04,VWS V14.01,2013-10-30 17:49:00,
2013-10-30 12:54:00,45.5,43.9,29.87,SW,227,0.0,2.2,94,0.00,,,0.04,VWS V14.01,2013-10-30 17:54:00,
2013-10-30 12:59:00,45.5,43.9,29.87,SW,219,3.6,3.6,94,0.00,,,0.04,VWS V14.01,2013-10-30 17:59:00,
2013-10-30 13:04:00,45.5,43.9,29.90,SW,217,4.0,4.0,94,0.00,,,0.04,VWS V14.01,2013-10-30 18:04:00,
2013-10-30 13:09:00,45.7,44.1,29.90,SW,217,3.1,3.1,94,0.00,,,0.04,VWS V14.01,2013-10-30 18:09:00,
2013-10-30 13:14:00,45.9,44.2,29.90,SSW,193,4.9,4.9,94,0.00,,,0.04,VWS V14.01,2013-10-30 18:14:00,
2013-10-30 13:19:00,45.9,44.5,29.90,SW,230,4.0,4.0,95,0.00,,,0.04,VWS V14.01,2013-10-30 18:19:00,
2013-10-30 13:24:00,46.0,44.7,29.90,WSW,252,6.3,7.6,95,0.00,,,0.04,VWS V14.01,2013-10-30 18:24:00,
2013-10-30 13:29:00,46.0,44.7,29.90,WSW,241,3.1,3.1,95,0.00,,,0.04,VWS V14.01,2013-10-30 18:29:00,
2013-10-30 13:35:00,46.0,44.7,29.90,WSW,237,0.0,0.0,95,0.00,,,0.04,VWS V14.01,2013-10-30 18:35:00,
2013-10-30 13:40:00,46.2,44.9,29.90,WSW,241,3.6,4.0,95,0.00,,,0.04,VWS V14.01,2013-10-30 18:40:00,
2013-10-30 13:45:00,46.4,45.0,29.90,SW,215,5.4,5.4,95,0.00,,,0.04,VWS V14.01,2013-10-30 18:45:00,
2013-10-30 13:50:00,46.4,45.0,29.87,SSW,196,4.0,4.0,95,0.00,,,0.04,VWS V14.01,2013-10-30 18:50:00,
2013-10-30 13:55:00,46.6,45.2,29.87,WSW,246,3.1,3.6,95,0.00,,,0.04,VWS V14.01,2013-10-30 18:55:00,
2013-10-30 14:00:00,46.6,45.2,29.87,WSW,241,4.0,4.0,95,0.00,,,0.04,VWS V14.01,2013-10-30 19:00:00,
2013-10-30 14:05:00,46.8,45.4,29.87,SW,224,3.6,5.4,95,0.00,,,0.04,VWS V14.01,2013-10-30 19:05:00,
2013-10-30 14:10:00,46.8,45.4,29.87,SSW,194,3.1,4.0,95,0.00,,,0.04,VWS V14.01,2013-10-30 19:10:00,
2013-10-30 14:15:00,46.9,45.6,29.87,SE,138,4.9,4.9,95,0.00,,,0.04,VWS V14.01,2013-10-30 19:15:00,
2013-10-30 14:20:00,47.1,45.8,29.87,SSW,210,8.7,10.1,95,0.00,,,0.04,VWS V14.01,2013-10-30 19:20:00,
2013-10-30 14:25:00,47.1,45.8,29.87,SW,230,3.1,5.8,95,0.00,,,0.04,VWS V14.01,2013-10-30 19:25:00,
2013-10-30 14:30:00,47.1,45.8,29.87,South,189,5.8,5.8,95,0.00,,,0.04,VWS V14.01,2013-10-30 19:30:00,
2013-10-30 14:35:00,47.1,45.8,29.87,SW,228,5.4,8.1,95,0.00,,,0.04,VWS V14.01,2013-10-30 19:35:00,
2013-10-30 14:40:00,47.3,45.9,29.87,SSW,200,2.7,6.3,95,0.00,,,0.04,VWS V14.01,2013-10-30 19:40:00,
2013-10-30 14:45:00,47.3,45.9,29.87,South,182,4.9,6.3,95,0.00,,,0.04,VWS V14.01,2013-10-30 19:45:00,
2013-10-30 14:50:00,47.3,45.9,29.84,South,179,6.3,6.3,95,0.00,,,0.04,VWS V14.01,2013-10-30 19:50:00,
2013-10-30 14:55:00,47.3,45.9,29.84,SSW,205,3.6,8.1,95,0.00,,,0.04,VWS V14.01,2013-10-30 19:55:00,
2013-10-30 15:00:00,47.3,46.2,29.84,SSE,149,3.6,6.3,96,0.00,,,0.04,VWS V14.01,2013-10-30 20:00:00,
2013-10-30 15:05:00,47.3,46.2,29.84,SW,224,5.8,6.3,96,0.00,,,0.04,VWS V14.01,2013-10-30 20:05:00,
2013-10-30 15:10:00,47.3,46.2,29.84,SW,215,4.5,5.8,96,0.00,,,0.04,VWS V14.01,2013-10-30 20:10:00,
2013-10-30 15:15:00,47.5,46.4,29.84,South,185,5.8,5.8,96,0.00,,,0.04,VWS V14.01,2013-10-30 20:15:00,
2013-10-30 15:20:00,47.5,46.4,29.81,South,174,5.4,8.1,96,0.00,,,0.04,VWS V14.01,2013-10-30 20:20:00,
2013-10-30 15:25:00,47.5,46.4,29.81,South,171,3.6,8.3,96,0.00,,,0.04,VWS V14.01,2013-10-30 20:25:00,
2013-10-30 15:30:00,47.5,46.4,29.81,South,185,3.6,4.9,96,0.00,,,0.04,VWS V14.01,2013-10-30 20:30:00,
2013-10-30 15:35:00,47.5,46.4,29.81,SE,146,3.1,5.8,96,0.00,,,0.04,VWS V14.01,2013-10-30 20:35:00,
2013-10-30 15:40:00,47.7,46.6,29.81,SSW,198,2.7,6.3,96,0.00,,,0.04,VWS V14.01,2013-10-30 20:40:00,
2013-10-30 15:45:00,47.7,46.6,29.81,SSE,152,6.3,7.2,96,0.00,,,0.04,VWS V14.01,2013-10-30 20:45:00,
2013-10-30 15:50:00,47.7,46.6,29.81,SE,140,4.5,6.3,96,0.00,,,0.04,VWS V14.01,2013-10-30 20:50:00,
2013-10-30 15:55:00,47.7,46.6,29.81,SSE,147,5.4,5.4,96,0.00,,,0.04,VWS V14.01,2013-10-30 20:55:00,
2013-10-30 16:00:00,47.7,46.6,29.81,SE,133,4.9,5.8,96,0.00,,,0.04,VWS V14.01,2013-10-30 21:00:00,
2013-10-30 16:05:00,47.7,46.6,29.81,SE,136,2.7,2.7,96,0.00,,,0.04,VWS V14.01,2013-10-30 21:05:00,
2013-10-30 16:10:00,47.7,46.6,29.81,SE,146,3.1,4.0,96,0.00,,,0.04,VWS V14.01,2013-10-30 21:10:00,
2013-10-30 16:15:00,47.7,46.6,29.81,SSW,213,2.7,2.7,96,0.00,,,0.04,VWS V14.01,2013-10-30 21:15:00,
2013-10-30 16:20:00,47.7,46.6,29.81,SSE,166,3.6,3.6,96,0.00,,,0.04,VWS V14.01,2013-10-30 21:20:00,
2013-10-30 16:25:00,47.7,46.6,29.81,SE,144,2.7,2.7,96,0.00,,,0.04,VWS V14.01,2013-10-30 21:25:00,
2013-10-30 16:30:00,47.8,46.8,29.81,SSE,162,0.0,0.0,96,0.00,,,0.04,VWS V14.01,2013-10-30 21:30:00,
2013-10-30 16:35:00,47.8,46.8,29.81,SE,137,0.0,0.0,96,0.00,,,0.04,VWS V14.01,2013-10-30 21:35:00,
2013-10-30 16:40:00,47.8,46.8,29.81,ESE,115,4.0,4.0,96,0.00,,,0.04,VWS V14.01,2013-10-30 21:40:00,
2013-10-30 16:45:00,47.8,46.8,29.81,ESE,111,4.0,4.0,96,0.00,,,0.04,VWS V14.01,2013-10-30 21:45:00,
2013-10-30 16:50:00,47.8,46.8,29.78,SE,132,3.6,3.6,96,0.00,,,0.04,VWS V14.01,2013-10-30 21:50:00,
2013-10-30 16:55:00,47.8,46.8,29.78,SE,131,2.7,2.7,96,0.00,,,0.04,VWS V14.01,2013-10-30 21:55:00,
2013-10-30 17:00:00,47.8,46.8,29.78,SE,137,0.0,2.2,96,0.00,,,0.04,VWS V14.01,2013-10-30 22:00:00,
2013-10-30 17:05:00,47.8,46.8,29.81,SSE,157,0.0,0.0,96,0.00,,,0.04,VWS V14.01,2013-10-30 22:05:00,
2013-10-30 17:10:00,48.0,46.9,29.81,SE,138,3.6,3.6,96,0.00,,,0.04,VWS V14.01,2013-10-30 22:10:00,
2013-10-30 17:15:00,48.0,46.9,29.81,SSE,156,2.7,2.7,96,0.00,,,0.04,VWS V14.01,2013-10-30 22:15:00,
2013-10-30 17:20:00,48.0,46.9,29.81,SSE,161,3.6,3.6,96,0.00,,,0.04,VWS V14.01,2013-10-30 22:20:00,
2013-10-30 17:25:00,48.0,46.9,29.81,SE,139,3.1,4.0,96,0.00,,,0.04,VWS V14.01,2013-10-30 22:25:00,
2013-10-30 17:30:00,47.8,46.8,29.81,ESE,120,2.7,3.6,96,0.00,,,0.04,VWS V14.01,2013-10-30 22:30:00,
2013-10-30 17:35:00,47.8,46.8,29.78,East,101,3.1,4.0,96,0.00,,,0.04,VWS V14.01,2013-10-30 22:35:00,
2013-10-30 17:40:00,47.8,46.8,29.78,ESE,114,5.4,5.4,96,0.00,,,0.04,VWS V14.01,2013-10-30 22:40:00,
2013-10-30 17:45:00,47.8,46.8,29.78,ESE,109,2.7,3.6,96,0.00,,,0.04,VWS V14.01,2013-10-30 22:45:00,
2013-10-30 17:50:00,47.8,47.0,29.78,ESE,108,0.0,0.0,97,0.00,,,0.04,VWS V14.01,2013-10-30 22:50:00,
2013-10-30 17:55:00,47.8,47.0,29.78,ESE,113,0.0,0.0,97,0.00,,,0.04,VWS V14.01,2013-10-30 22:55:00,
2013-10-30 18:00:00,47.8,47.0,29.78,ESE,117,0.0,0.0,97,0.00,,,0.04,VWS V14.01,2013-10-30 23:00:00,
2013-10-30 18:05:00,47.8,47.0,29.78,SSE,149,4.0,4.5,97,0.00,,,0.04,VWS V14.01,2013-10-30 23:05:00,
2013-10-30 18:10:00,47.8,47.0,29.78,South,173,5.4,5.4,97,0.00,,,0.04,VWS V14.01,2013-10-30 23:10:00,
2013-10-30 18:15:00,47.8,47.0,29.78,SSE,166,2.7,3.6,97,0.00,,,0.04,VWS V14.01,2013-10-30 23:15:00,
2013-10-30 18:20:00,47.8,47.0,29.78,SSE,163,2.7,3.6,97,0.00,,,0.04,VWS V14.01,2013-10-30 23:20:00,
2013-10-30 18:26:00,47.8,47.0,29.78,ESE,112,0.0,0.0,97,0.00,,,0.04,VWS V14.01,2013-10-30 23:26:00,
2013-10-30 18:31:00,47.8,47.0,29.78,SE,126,8.1,8.1,97,0.00,,,0.04,VWS V14.01,2013-10-30 23:31:00,
2013-10-30 18:36:00,47.8,47.0,29.78,SE,141,4.0,4.0,97,0.00,,,0.04,VWS V14.01,2013-10-30 23:36:00,
2013-10-30 18:41:00,47.8,47.0,29.78,SSE,159,4.5,4.9,97,0.00,,,0.04,VWS V14.01,2013-10-30 23:41:00,
2013-10-30 18:46:00,47.8,47.0,29.78,ESE,119,3.1,4.0,97,0.00,,,0.04,VWS V14.01,2013-10-30 23:46:00,
2013-10-30 18:51:00,47.8,47.0,29.78,SE,127,4.5,4.5,97,0.00,,,0.04,VWS V14.01,2013-10-30 23:51:00,
2013-10-30 18:56:00,47.8,47.0,29.78,SE,135,4.0,4.0,97,0.00,,,0.04,VWS V14.01,2013-10-30 23:56:00,
2013-10-30 19:01:00,47.8,47.0,29.78,South,170,4.9,4.9,97,0.00,,-RA,0.04,VWS V14.01,2013-10-31 00:01:00,
2013-10-30 19:06:00,47.8,47.0,29.78,SSE,168,3.6,4.0,97,0.00,,-RA,0.04,VWS V14.01,2013-10-31 00:06:00,
2013-10-30 19:11:00,47.8,47.0,29.78,SSE,152,3.1,3.1,97,0.00,,-RA,0.04,VWS V14.01,2013-10-31 00:11:00,
2013-10-30 19:16:00,47.8,47.0,29.78,SSE,163,0.0,0.0,97,0.00,,-RA,0.04,VWS V14.01,2013-10-31 00:16:00,
2013-10-30 19:21:00,47.8,47.0,29.78,South,169,2.7,2.7,97,0.00,,-RA,0.04,VWS V14.01,2013-10-31 00:21:00,
2013-10-30 19:26:00,47.8,47.0,29.78,South,169,0.0,0.0,97,0.00,,-RA,0.04,VWS V14.01,2013-10-31 00:26:00,
2013-10-30 19:31:00,47.8,47.0,29.78,South,169,0.0,0.0,97,0.00,,-RA,0.04,VWS V14.01,2013-10-31 00:31:00,
2013-10-30 19:36:00,48.0,47.2,29.78,SSE,168,0.0,0.0,97,0.00,,-RA,0.04,VWS V14.01,2013-10-31 00:36:00,
2013-10-30 19:41:00,48.0,47.2,29.78,South,169,0.0,0.0,97,0.00,,-RA,0.04,VWS V14.01,2013-10-31 00:41:00,
2013-10-30 19:46:00,48.0,47.2,29.78,South,169,0.0,0.0,97,0.00,,-RA,0.04,VWS V14.01,2013-10-31 00:46:00,
2013-10-30 19:51:00,47.8,47.0,29.78,South,169,0.0,0.0,97,0.00,,-RA,0.04,VWS V14.01,2013-10-31 00:51:00,
2013-10-30 19:56:00,47.8,47.0,29.78,South,169,0.0,0.0,97,0.00,,-RA,0.04,VWS V14.01,2013-10-31 00:56:00,
2013-10-30 20:01:00,48.0,47.2,29.78,SE,139,4.9,4.9,97,0.00,,,0.04,VWS V14.01,2013-10-31 01:01:00,
2013-10-30 20:06:00,48.0,47.2,29.75,SSE,150,0.0,0.0,97,0.00,,,0.04,VWS V14.01,2013-10-31 01:06:00,
2013-10-30 20:11:00,48.0,47.2,29.75,SSE,163,0.0,0.0,97,0.00,,,0.04,VWS V14.01,2013-10-31 01:11:00,
2013-10-30 20:16:00,48.0,47.2,29.75,SSE,163,0.0,0.0,97,0.00,,,0.04,VWS V14.01,2013-10-31 01:16:00,
2013-10-30 20:21:00,48.0,47.2,29.75,SSE,163,0.0,0.0,97,0.00,,,0.04,VWS V14.01,2013-10-31 01:21:00,
2013-10-30 20:26:00,48.0,47.2,29.75,SSE,156,0.0,0.0,97,0.00,,,0.04,VWS V14.01,2013-10-31 01:26:00,
2013-10-30 20:31:00,48.0,47.2,29.75,SSE,151,2.7,3.1,97,0.00,,,0.04,VWS V14.01,2013-10-31 01:31:00,
2013-10-30 20:36:00,48.2,47.4,29.75,SSE,148,3.1,3.6,97,0.00,,,0.04,VWS V14.01,2013-10-31 01:36:00,
2013-10-30 20:41:00,48.2,47.4,29.75,ESE,118,3.1,3.6,97,0.00,,,0.04,VWS V14.01,2013-10-31 01:41:00,
2013-10-30 20:46:00,48.2,47.4,29.75,SE,142,2.2,3.1,97,0.00,,,0.04,VWS V14.01,2013-10-31 01:46:00,
2013-10-30 20:51:00,48.2,47.4,29.75,SE,137,0.0,0.0,97,0.00,,,0.04,VWS V14.01,2013-10-31 01:51:00,
2013-10-30 20:57:00,48.2,47.4,29.75,South,180,3.1,3.1,97,0.00,,,0.04,VWS V14.01,2013-10-31 01:57:00,
2013-10-30 21:02:00,48.4,47.6,29.75,South,177,2.7,4.0,97,0.00,,,0.04,VWS V14.01,2013-10-31 02:02:00,
2013-10-30 21:07:00,48.4,47.6,29.75,SSE,153,3.1,4.0,97,0.00,,,0.04,VWS V14.01,2013-10-31 02:07:00,
2013-10-30 21:12:00,48.4,47.6,29.75,SSE,165,4.0,4.0,97,0.00,,,0.04,VWS V14.01,2013-10-31 02:12:00,
2013-10-30 21:17:00,48.4,47.6,29.75,SSE,153,3.1,5.4,97,0.00,,,0.04,VWS V14.01,2013-10-31 02:17:00,
2013-10-30 21:22:00,48.6,47.8,29.75,SSW,202,4.0,4.0,97,0.00,,,0.04,VWS V14.01,2013-10-31 02:22:00,
2013-10-30 21:27:00,48.6,47.8,29.75,SSE,157,4.5,4.5,97,0.00,,,0.04,VWS V14.01,2013-10-31 02:27:00,
2013-10-30 21:32:00,48.6,47.8,29.75,SSE,155,3.6,4.9,97,0.00,,,0.04,VWS V14.01,2013-10-31 02:32:00,
2013-10-30 21:37:00,48.6,47.8,29.72,South,179,3.6,3.6,97,0.00,,,0.04,VWS V14.01,2013-10-31 02:37:00,
2013-10-30 21:42:00,48.6,47.8,29.72,SSE,160,2.2,3.1,97,0.00,,,0.04,VWS V14.01,2013-10-31 02:42:00,
2013-10-30 21:47:00,48.7,48.2,29.72,SE,137,3.1,3.1,98,0.00,,,0.04,VWS V14.01,2013-10-31 02:47:00,
2013-10-30 21:52:00,48.7,48.2,29.72,SE,145,0.0,0.0,98,0.00,,,0.04,VWS V14.01,2013-10-31 02:52:00,
2013-10-30 21:57:00,48.7,48.2,29.72,South,185,3.6,3.6,98,0.00,,,0.04,VWS V14.01,2013-10-31 02:57:00,
2013-10-30 22:02:00,48.7,48.2,29.72,South,186,0.0,0.0,98,0.00,,,0.04,VWS V14.01,2013-10-31 03:02:00,
2013-10-30 22:03:00,48.7,48.2,29.72,SSE,168,0.0,0.0,98,0.00,,,0.04,VWS V14.01,2013-10-31 03:03:00,
2013-10-30 22:08:00,48.7,48.2,29.72,South,187,4.9,4.9,98,0.00,,,0.04,VWS V14.01,2013-10-31 03:08:00,
2013-10-30 22:13:00,48.9,48.4,29.72,SSW,197,5.4,5.4,98,0.00,,,0.04,VWS V14.01,2013-10-31 03:13:00,
2013-10-30 22:18:00,48.9,48.4,29.72,SSW,200,2.7,2.7,98,0.00,,,0.04,VWS V14.01,2013-10-31 03:18:00,
2013-10-30 22:23:00,48.9,48.4,29.72,SSE,157,4.5,4.5,98,0.00,,,0.04,VWS V14.01,2013-10-31 03:23:00,
2013-10-30 22:28:00,48.9,48.4,29.72,SSW,192,3.1,3.6,98,0.00,,,0.04,VWS V14.01,2013-10-31 03:28:00,
2013-10-30 22:33:00,48.9,48.4,29.72,SSW,206,4.0,4.0,98,0.00,,,0.04,VWS V14.01,2013-10-31 03:33:00,
2013-10-30 22:38:00,49.1,48.6,29.72,SSW,205,4.0,4.0,98,0.00,,,0.04,VWS V14.01,2013-10-31 03:38:00,
2013-10-30 22:43:00,49.1,48.6,29.72,SSW,206,2.2,3.1,98,0.00,,,0.04,VWS V14.01,2013-10-31 03:43:00,
2013-10-30 22:48:00,49.1,48.6,29.72,South,184,4.0,6.3,98,0.00,,,0.04,VWS V14.01,2013-10-31 03:48:00,
2013-10-30 22:53:00,49.1,48.6,29.70,SSW,197,2.7,3.6,98,0.00,,,0.04,VWS V14.01,2013-10-31 03:53:00,
2013-10-30 22:58:00,49.1,48.6,29.70,SSW,195,2.7,2.7,98,0.00,,,0.04,VWS V14.01,2013-10-31 03:58:00,
2013-10-30 23:01:00,49.1,48.6,29.70,SSW,193,3.1,4.0,98,0.00,,,0.04,VWS V14.01,2013-10-31 04:01:00,
2013-10-30 23:02:00,49.1,48.6,29.70,SSW,193,3.1,4.0,98,0.00,,,0.04,VWS V14.01,2013-10-31 04:02:00,
2013-10-30 23:03:00,49.1,48.6,29.70,South,190,2.7,4.0,98,0.00,,,0.04,VWS V14.01,2013-10-31 04:03:00,
2013-10-30 23:05:00,49.1,48.6,29.70,South,191,0.0,0.0,98,0.00,,,0.04,VWS V14.01,2013-10-31 04:05:00,
2013-10-30 23:10:00,49.1,48.6,29.70,South,191,0.0,2.7,98,0.00,,,0.04,VWS V14.01,2013-10-31 04:10:00,
2013-10-30 23:11:00,49.1,48.6,29.70,South,191,0.0,2.7,98,0.00,,,0.04,VWS V14.01,2013-10-31 04:11:00,
2013-10-30 23:16:00,49.1,48.6,29.70,South,191,0.0,0.0,98,0.00,,,0.04,VWS V14.01,2013-10-31 04:16:00,
2013-10-30 23:21:00,49.3,48.7,29.70,SSW,192,0.0,0.0,98,0.00,,,0.04,VWS V14.01,2013-10-31 04:21:00,
2013-10-30 23:26:00,49.1,48.6,29.70,SSW,192,0.0,0.0,98,0.00,,,0.04,VWS V14.01,2013-10-31 04:26:00,
2013-10-30 23:31:00,49.1,48.6,29.70,SSW,192,0.0,0.0,98,0.00,,,0.04,VWS V14.01,2013-10-31 04:31:00,
2013-10-30 23:36:00,49.1,48.6,29.70,SSW,192,0.0,0.0,98,0.00,,,0.04,VWS V14.01,2013-10-31 04:36:00,
2013-10-30 23:41:00,49.1,48.6,29.70,SSW,192,0.0,0.0,98,0.00,,,0.04,VWS V14.01,2013-10-31 04:41:00,
2013-10-30 23:46:00,49.3,48.7,29.70,SSW,193,0.0,0.0,98,0.00,,,0.04,VWS V14.01,2013-10-31 04:46:00,
2013-10-30 23:51:00,49.1,48.6,29.70,SSW,192,0.0,0.0,98,0.00,,,0.04,VWS V14.01,2013-10-31 04:51:00,
2013-10-30 23:57:00,49.3,48.7,29.70,SSW,193,0.0,0.0,98,0.00,,,0.04,VWS V14.01,2013-10-31 04:57:00,